Location: Sungai Kamana Besar
(2.6333°N, 113.4333°E)
Time: 04:38:03
(UTC+00:00)

Sylda 5 - Pass Details

Date: 29 May 2022
Orbit: 561 x 35536 km, 6.7° (Epoch: 26 June)

Event Time Altitude Azimuth Distance (km) Brightness Sun altitude
Exits shadow 20:33:19 55° 181° (S) 863 2.5 -24.4°
Drops below altitude 10° 20:40:42 10° 104° (ESE) 4,087 6.9 -22.7°
Sets 20:47:35 0° 100° (E) 7,233 8.4 -21.2°
